Theta_e
320 317 321 319 309 310 304 306 309 305 308 315 318 318 316 317 315 310 330 334 337 341 343 344 345 344 344 345 345 345 345 344 343 341 339 336 334 331 330 329 328 328 328 328 328 326 325 324 323
315 316 319 315 304 301 302 308 306 308 313 314 314 315 316 315 321 323 327 334 337 342 342 342 342 344 344 343 343 343 343 341 340 338 335 333 330 329 327 327 327 327 327 327 326 325 324 322 321
314 315 311 308 303 300 302 306 308 311 311 310 312 317 316 315 321 323 330 332 339 341 342 342 341 342 342 342 341 341 340 338 336 334 333 331 328 326 325 325 325 324 325 324 323 323 321 320 319
314 314 311 301 298 303 305 306 307 311 309 312 314 311 319 323 322 326 328 330 334 336 340 340 341 342 341 340 338 337 336 334 332 330 329 327 325 324 324 324 323 323 322 321 321 320 319 318 317
314 311 301 299 299 302 304 303 306 307 306 308 309 309 315 322 325 325 325 325 327 328 329 330 337 338 338 336 335 333 331 330 328 325 325 324 323 323 322 322 321 320 320 318 317 317 316 316 315
307 308 298 296 298 302 303 302 303 304 306 307 308 310 315 324 324 322 322 322 323 323 325 325 325 330 332 331 330 328 326 325 323 323 322 322 321 320 320 319 318 317 317 316 315 313 313 313 313
305 302 298 297 297 298 300 303 303 303 304 305 309 305 314 321 323 322 321 320 320 321 320 321 321 322 322 323 324 322 321 320 319 318 317 317 316 316 315 314 314 314 314 313 311 310 309 309 310
307 303 295 296 295 296 299 301 302 303 303 307 308 304 308 321 323 321 320 318 318 318 318 318 317 319 319 317 318 317 315 314 312 311 311 310 310 309 309 310 310 310 311 310 309 308 307 306 306
306 298 294 294 294 296 299 299 302 304 304 306 309 309 312 322 323 319 317 316 316 316 316 316 316 317 316 314 312 314 311 310 309 307 305 305 307 307 307 305 306 306 307 306 306 306 304 304 303
302 297 295 297 297 296 298 298 298 300 301 303 307 313 314 319 319 318 319 316 314 313 314 313 314 312 313 310 309 307 305 306 306 306 306 307 306 304 304 303 301 302 301 301 302 302 303 306 304
300 296 297 296 298 297 296 297 298 298 298 301 301 304 314 315 316 317 318 320 317 317 316 316 314 312 311 308 307 307 307 307 308 307 307 306 306 306 306 305 304 305 303 303 303 302 302 303 303
295 296 297 297 297 296 295 297 296 297 299 300 304 305 313 313 314 314 315 316 318 319 319 316 313 310 309 309 307 307 307 308 308 307 306 307 306 306 304 304 304 304 303 302 302 302 302 302 302
296 296 296 296 297 297 297 296 296 297 299 302 308 306 311 313 314 314 315 317 319 318 318 317 316 311 308 307 307 306 306 306 306 305 304 305 304 304 303 303 303 303 302 301 301 301 301 302 302
297 296 296 297 297 296 295 296 296 297 298 301 306 309 311 312 313 314 315 317 318 318 318 318 315 312 309 307 307 307 306 305 304 304 304 303 304 304 303 302 302 303 302 301 300 300 300 301 302
296 294 294 296 297 295 296 294 293 298 297 298 302 307 311 313 314 314 315 315 316 317 318 317 316 314 310 308 308 307 307 306 305 305 304 304 303 303 303 303 303 302 302 301 301 300 301 301 301
293 294 292 294 296 296 296 292 295 297 297 297 299 304 307 310 311 309 307 307 308 308 309 311 315 313 312 310 309 308 307 307 306 306 305 304 304 303 303 303 303 303 302 301 300 299 299 300 300
297 291 291 292 295 294 295 293 297 298 298 298 298 298 302 304 304 304 305 305 305 305 305 306 309 313 312 311 308 307 307 306 306 305 305 305 304 303 303 302 303 302 301 301 300 299 299 298 300
289 290 291 291 293 292 293 294 298 300 298 298 299 298 297 298 299 301 302 303 304 305 305 305 306 309 312 310 308 307 306 306 306 305 305 305 304 303 303 303 302 301 301 300 299 299 299 298 298
292 291 290 292 292 289 292 292 293 297 297 297 298 298 297 297 300 300 301 303 303 304 304 304 305 306 310 308 306 305 304 305 304 304 305 304 304 303 303 302 301 301 300 299 298 298 297 297 298
291 290 289 291 291 288 289 288 294 292 292 293 293 295 296 297 297 298 300 301 302 302 303 303 304 305 308 308 307 307 306 306 305 305 304 304 304 304 303 302 302 301 300 300 299 298 296 297 297
288 286 286 284 288 290 286 290 290 290 292 293 293 294 295 295 295 297 297 298 300 300 300 301 303 304 306 306 305 304 303 303 302 302 302 302 303 303 302 302 301 301 300 299 299 298 296 295 297
287 286 286 285 285 284 286 285 288 289 289 290 291 292 292 294 295 296 296 297 297 298 301 301 302 303 303 304 303 302 301 301 303 303 303 302 301 301 300 300 300 300 300 298 299 298 297 296 294
285 286 285 284 283 283 283 284 287 288 286 287 289 291 292 293 294 294 296 296 297 298 299 301 301 302 302 302 302 302 302 303 303 302 301 301 300 300 299 299 299 298 298 298 298 298 297 297 295
287 284 283 284 285 283 275 279 286 285 285 286 288 289 291 292 293 295 296 297 297 298 298 299 299 300 300 301 302 301 301 302 301 301 300 300 299 299 297 296 295 295 295 295 296 297 297 296 296
287 285 287 284 284 282 273 277 285 285 286 286 286 288 290 291 291 292 293 294 295 296 296 296 296 296 298 298 299 299 299 300 300 300 299 298 297 296 295 293 293 293 293 293 293 293 293 294 294
282 282 283 275 278 280 273 279 283 285 287 288 288 288 288 289 289 290 291 292 293 294 295 295 295 294 296 296 296 297 297 296 297 297 296 295 294 294 293 292 292 292 292 292 292 292 292 293 293
282 284 281 277 269 275 282 284 285 285 285 285 285 285 285 286 288 288 289 289 290 291 293 294 294 293 293 294 294 293 294 293 293 293 293 292 292 291 291 291 291 291 291 291 290 290 290 291 291
283 282 281 281 275 275 280 279 282 282 283 282 282 283 284 285 286 286 287 288 290 290 291 293 294 292 292 293 292 292 292 292 291 291 290 290 290 290 289 289 290 289 289 289 289 289 290 289 290
281 282 280 280 278 277 275 280 283 282 280 280 282 283 283 283 284 285 287 288 289 290 290 290 291 292 292 291 292 291 290 290 290 290 290 290 290 289 288 288 288 288 288 288 287 287 287 286 287
282 283 282 279 277 277 275 277 284 281 281 281 281 283 284 284 284 285 286 287 286 288 288 288 289 289 292 293 291 290 290 289 288 288 289 289 288 289 288 288 287 287 287 287 286 286 286 285 285
Wind_Speed
16 10 6 4 6 5 7 5 1 2 4 3 3 7 7 9 7 2 3 5 8 6 3 7 3 4 8 11 13 14 17 16 15 16 15 14 14 12 11 11 11 12 11 12 12 12 13 13 12
10 8 4 3 7 7 3 5 3 5 6 3 4 3 5 7 6 2 1 10 9 4 3 6 8 9 11 13 14 15 15 14 15 16 15 15 13 11 11 11 11 11 12 11 11 12 12 12 12
9 4 4 3 5 7 4 4 4 6 4 2 2 6 4 4 3 3 7 9 8 6 7 10 9 12 15 15 15 15 15 14 12 13 15 14 13 11 11 11 11 11 11 11 11 11 11 12 11
4 5 3 5 5 4 5 6 3 5 2 3 2 7 7 5 3 5 7 9 8 11 11 9 9 14 15 16 15 16 15 14 13 12 12 14 12 11 11 11 10 10 11 11 11 10 11 11 11
4 3 4 4 3 1 2 5 4 2 3 4 5 6 6 5 7 7 8 9 8 10 11 13 16 14 16 17 16 15 14 14 12 10 11 13 11 11 10 10 10 10 10 10 10 10 10 11 10
3 4 4 7 5 3 3 4 3 1 1 4 1 3 6 7 5 6 8 9 9 9 10 12 17 17 14 16 15 14 14 13 11 11 11 12 11 10 10 10 9 9 10 10 10 10 10 9 9
3 4 2 2 1 3 4 4 1 3 1 5 4 1 5 7 8 6 7 7 9 9 9 9 9 11 17 17 15 13 13 12 11 11 10 11 10 10 10 10 9 9 9 9 9 9 9 8 8
3 3 4 0 3 4 3 1 3 5 6 1 4 3 5 9 9 7 7 8 8 8 8 8 7 7 7 8 13 11 10 11 10 9 9 8 9 7 8 7 9 9 9 8 9 8 8 6 6
2 4 3 3 2 4 3 2 3 2 2 2 4 6 4 10 8 6 5 5 6 6 5 6 5 6 7 6 6 7 8 10 7 6 3 3 3 3 6 8 8 8 7 7 8 8 7 7 4
3 3 3 4 3 3 2 3 4 3 3 3 4 5 4 9 7 6 5 3 3 3 3 3 5 5 4 4 4 4 4 2 3 2 2 3 3 4 4 4 3 4 4 1 4 5 6 5 5
4 4 3 4 6 3 2 1 2 3 5 3 2 2 5 7 7 7 7 4 3 4 4 3 5 5 4 4 4 2 1 1 2 3 2 1 1 1 1 1 2 3 2 4 5 4 4 5 5
3 4 4 3 5 4 3 5 4 4 5 3 3 2 7 8 7 6 4 4 6 4 3 3 3 3 3 2 3 1 2 1 1 1 1 1 0 1 2 2 2 3 3 4 4 3 3 4 4
5 4 3 3 5 6 8 6 7 7 1 3 3 2 5 5 4 3 3 6 4 3 2 4 4 4 3 3 1 1 1 2 1 1 1 1 1 0 1 1 2 2 3 3 3 4 4 4 4
3 3 4 5 6 5 8 7 5 4 5 3 2 1 3 5 5 3 6 6 5 3 3 3 4 4 3 3 3 3 2 2 3 2 2 2 2 2 2 1 2 2 2 3 3 4 4 4 3
3 1 3 9 9 4 8 8 6 5 3 5 3 3 2 4 4 4 4 4 5 5 5 5 5 5 5 6 5 4 3 3 4 4 4 3 3 3 3 2 2 2 3 4 4 4 4 4 3
1 3 1 7 10 3 8 4 3 1 4 6 4 4 4 4 1 2 3 4 5 6 6 7 5 6 7 6 5 5 4 5 4 4 4 4 4 4 4 3 2 3 3 4 4 4 4 4 4
8 4 7 4 6 6 3 11 1 4 6 9 6 5 3 3 2 1 4 6 7 7 8 8 8 9 8 7 5 6 5 5 4 4 4 5 4 4 4 3 2 3 3 3 4 4 4 5 4
6 5 5 7 8 9 9 13 11 10 7 9 8 4 3 2 1 4 5 7 8 8 8 9 8 9 8 6 6 5 5 6 5 5 5 5 5 5 4 3 3 3 4 3 3 4 4 4 5
6 6 8 6 6 11 9 16 17 11 8 10 9 6 2 3 5 3 5 6 8 8 9 10 10 9 6 6 6 6 6 6 6 5 6 6 5 6 6 5 4 4 4 3 4 4 4 4 4
6 4 6 2 3 7 10 19 7 11 9 9 9 10 8 4 2 3 5 6 8 9 10 11 10 9 6 6 5 6 4 4 5 4 5 6 6 6 6 6 5 4 4 4 4 3 4 3 1
7 5 6 5 13 5 15 6 9 10 13 12 13 10 8 6 7 7 8 9 9 10 11 11 11 9 7 7 5 4 3 3 4 5 5 5 5 5 6 6 5 5 4 4 4 3 3 4 2
1 5 5 7 8 4 9 0 7 10 12 15 14 14 14 10 7 7 8 9 9 9 9 10 9 8 5 6 7 9 7 7 6 4 4 4 5 5 4 4 5 5 4 5 4 3 4 3 5
3 5 4 3 3 5 4 2 7 9 11 15 15 15 14 12 8 9 9 9 8 8 9 9 9 8 7 7 8 8 9 7 5 4 5 6 5 5 4 4 4 5 4 4 5 5 5 4 5
7 4 3 2 1 2 2 5 3 5 6 10 14 15 15 13 12 10 9 9 9 9 10 10 10 9 7 8 9 10 11 10 7 7 6 6 5 5 5 4 4 4 4 4 4 4 6 5 6
7 3 3 2 2 2 1 5 4 5 8 11 12 14 14 14 14 14 15 13 13 13 11 10 10 11 9 9 9 9 10 10 10 9 6 7 5 5 6 4 4 4 3 4 4 5 5 5 5
5 2 2 5 4 6 2 6 3 8 11 10 12 12 14 15 14 15 16 15 15 15 14 13 12 13 11 10 10 9 9 7 7 7 6 5 5 5 3 4 4 5 4 5 5 4 4 5 4
2 0 2 2 1 3 3 4 9 8 6 12 14 14 15 15 15 17 18 17 16 15 15 15 14 14 13 12 10 10 10 9 8 8 7 5 5 5 5 5 5 5 5 5 5 5 5 5 5
2 3 1 2 4 6 5 5 6 6 2 9 13 12 13 12 14 16 16 17 15 14 14 14 13 14 14 13 12 11 10 9 8 7 8 8 7 6 6 6 6 6 5 5 5 5 5 6 5
3 2 1 3 3 5 6 3 1 8 5 6 5 9 8 11 16 15 15 15 15 15 15 16 16 15 15 13 13 12 11 9 9 8 9 8 7 7 7 7 7 6 6 6 6 6 6 7 6
1 3 4 4 2 3 4 8 5 7 2 2 7 9 10 8 10 12 15 16 17 17 16 16 16 17 17 16 14 13 12 10 10 10 9 8 8 8 8 7 7 7 7 6 6 7 6 7 7
Wind_Direction
309 314 295 258 236 242 226 134 2 160 150 31 33 11 62 39 5 31 20 352 347 301 156 129 90 136 142 125 118 112 107 108 101 98 95 87 80 73 67 65 62 60 59 57 54 50 47 41 37
313 320 244 279 260 223 161 102 179 48 76 69 68 345 28 76 40 80 190 359 330 320 66 92 95 112 108 93 85 89 100 104 107 106 97 90 87 82 73 66 60 58 55 54 52 52 49 43 37
284 279 264 245 269 270 49 68 83 112 77 27 109 42 25 63 61 20 4 345 339 49 70 94 104 107 93 91 89 90 90 87 93 97 104 101 93 85 79 72 66 56 53 51 48 46 44 45 39
285 194 194 245 202 334 7 51 37 139 119 46 20 90 102 53 28 1 2 18 49 42 51 76 91 99 97 95 89 88 87 87 82 83 88 90 86 82 76 71 64 59 51 47 44 42 41 38 34
235 231 211 232 225 80 44 24 6 122 61 57 336 97 75 85 73 43 36 34 46 56 49 49 64 81 92 89 89 88 85 83 82 83 84 85 84 78 74 68 62 53 51 46 42 38 35 33 28
206 294 223 226 176 136 91 24 346 333 46 75 106 88 81 111 84 54 56 47 42 52 56 59 49 63 71 83 88 89 89 87 86 78 72 80 81 80 71 63 57 53 50 41 37 37 34 27 25
273 237 308 73 153 184 53 336 315 348 17 64 350 341 86 159 103 84 77 73 59 53 57 56 59 65 66 63 69 80 85 84 86 83 78 76 68 72 71 59 53 48 43 43 39 34 29 25 22
289 274 179 217 189 109 43 350 351 355 77 66 348 62 108 144 117 98 79 70 61 64 64 59 56 60 70 70 64 75 86 88 86 84 87 92 94 88 64 73 46 46 39 36 29 24 19 11 21
290 226 166 109 178 84 26 283 63 24 280 82 43 34 62 116 126 107 103 80 75 71 63 83 78 91 84 88 85 93 83 94 90 88 110 205 53 65 78 58 45 38 37 29 23 12 359 329 239
311 276 64 40 50 64 43 326 345 282 180 155 145 103 138 139 176 181 181 127 99 98 101 123 138 147 142 110 118 110 103 34 74 77 347 34 55 40 54 84 68 46 354 359 3 347 315 305 345
23 32 114 63 26 3 8 226 347 288 238 48 10 119 154 168 192 200 210 160 162 162 166 168 153 154 167 152 169 164 166 157 162 139 111 69 77 10 16 13 9 351 9 355 346 354 5 358 344
124 46 9 38 19 337 357 321 271 271 26 4 310 294 168 185 197 208 219 233 230 216 173 169 177 193 186 188 221 172 197 192 197 81 46 267 359 1 353 6 356 343 352 341 345 341 332 336 338
62 95 56 35 0 350 330 302 309 277 19 321 11 203 181 193 203 204 239 259 256 247 203 201 197 204 199 214 183 215 221 223 99 158 68 325 351 330 324 357 339 323 322 347 337 329 323 314 320
66 82 70 33 10 8 334 303 323 84 352 325 319 207 174 187 195 209 220 237 232 260 261 241 231 223 211 238 219 222 208 180 214 205 175 177 233 232 230 248 273 294 330 335 318 323 312 301 305
96 158 112 34 2 16 336 257 246 27 333 301 262 238 216 194 194 239 357 327 331 311 307 276 259 230 230 228 221 221 216 217 217 201 207 210 230 235 263 253 291 332 326 302 306 308 294 288 293
313 243 242 47 7 27 333 330 43 262 296 287 268 222 224 203 280 40 9 341 338 323 306 303 260 242 233 232 223 222 218 226 220 215 214 216 229 247 247 264 288 328 309 319 320 314 307 299 304
25 22 15 111 40 325 313 307 109 242 280 288 271 256 232 233 202 70 13 359 346 332 320 307 290 254 238 234 235 235 227 234 232 231 226 216 234 251 272 274 296 302 303 293 306 303 305 301 308
7 9 353 358 7 339 300 279 307 303 268 289 289 270 266 278 332 22 3 359 347 337 331 314 297 276 246 236 234 233 229 233 229 230 234 226 236 238 254 257 269 274 277 284 304 305 310 301 308
341 343 340 17 23 326 300 306 313 330 346 339 307 284 296 301 55 6 360 351 345 344 335 330 314 291 248 233 232 235 237 227 232 229 230 231 235 236 243 254 254 251 268 296 301 308 300 303 330
2 344 5 293 324 313 326 310 49 37 35 28 17 14 9 336 307 3 348 345 352 346 346 339 326 304 261 249 254 265 271 259 245 227 225 228 230 231 244 253 258 265 279 261 277 295 309 277 314
46 18 359 320 315 239 321 114 97 76 74 65 43 31 18 12 348 348 352 352 353 354 348 340 335 319 289 255 263 256 262 258 231 223 225 220 235 233 241 250 261 265 269 279 290 283 281 298 271
294 3 318 318 336 320 12 265 130 112 79 50 39 28 21 5 358 350 347 348 348 346 340 338 336 329 303 278 263 263 266 264 244 242 213 200 218 226 243 263 266 274 277 274 274 263 276 268 274
11 330 318 328 303 316 35 266 104 158 62 45 39 33 25 15 0 346 339 337 333 339 335 334 332 327 316 288 267 273 263 274 288 247 236 226 213 233 233 252 255 260 263 275 281 281 257 264 270
325 306 286 241 191 249 54 349 57 38 21 50 35 24 20 13 8 2 347 335 339 340 335 331 328 319 315 303 289 279 274 274 262 247 241 231 227 215 223 235 250 260 268 268 281 283 275 274 277
352 316 328 262 264 308 3 269 352 46 69 56 26 15 15 12 9 3 359 351 343 338 331 322 320 310 309 302 293 285 282 278 271 265 250 248 235 225 224 234 243 256 262 275 279 277 273 268 265
14 14 14 297 291 332 180 238 118 95 108 58 34 24 15 13 12 14 9 2 350 339 328 319 310 302 297 287 282 281 278 275 272 268 261 255 251 244 230 240 252 259 268 270 268 270 266 275 274
61 92 37 111 119 254 261 246 122 119 76 19 25 22 18 13 16 13 8 1 351 345 335 322 310 300 292 283 279 271 267 261 261 255 250 248 242 242 243 248 256 255 257 265 274 270 273 274 275
319 82 203 174 281 274 205 256 280 184 69 2 17 16 3 5 13 5 358 352 348 341 335 324 307 292 285 281 267 263 256 253 258 259 251 248 246 240 243 244 247 253 255 257 262 271 271 270 274
151 190 209 317 257 278 299 240 359 107 59 356 339 353 2 2 1 353 347 345 341 338 340 333 320 302 286 274 266 257 252 248 245 242 243 240 242 238 239 243 249 252 253 253 255 261 267 266 271
283 268 229 251 216 248 303 275 85 105 85 342 351 354 354 355 343 339 339 338 337 334 335 333 323 315 303 282 270 258 251 243 235 238 238 234 234 235 239 244 245 249 249 250 253 260 269 269 273